Year,Month,Day,Hour,Minute,Value (Times are PST for barometer in hPa)
2017,10,19,00,00,998.41
2017,10,19,00,01,998.41
2017,10,19,00,02,998.41
2017,10,19,00,03,998.41
2017,10,19,00,04,998.41
2017,10,19,00,05,998.41
2017,10,19,00,06,998.41
2017,10,19,00,07,998.41
2017,10,19,00,08,998.41
2017,10,19,00,09,998.41
2017,10,19,00,10,998.41
2017,10,19,00,11,998.41
2017,10,19,00,12,998.41
2017,10,19,00,13,998.41
2017,10,19,00,14,998.41
2017,10,19,00,15,998.65
2017,10,19,00,16,998.65
2017,10,19,00,17,998.65
2017,10,19,00,18,998.65
2017,10,19,00,19,998.65
2017,10,19,00,20,998.65
2017,10,19,00,21,998.65
2017,10,19,00,22,998.65
2017,10,19,00,23,998.65
2017,10,19,00,24,998.65
2017,10,19,00,25,998.65
2017,10,19,00,26,998.65
2017,10,19,00,27,998.65
2017,10,19,00,28,998.65
2017,10,19,00,29,998.65
2017,10,19,00,30,998.41
2017,10,19,00,31,998.41
2017,10,19,00,32,998.41
2017,10,19,00,33,998.41
2017,10,19,00,34,998.41
2017,10,19,00,35,998.41
2017,10,19,00,36,998.41
2017,10,19,00,37,998.41
2017,10,19,00,38,998.41
2017,10,19,00,39,998.41
2017,10,19,00,40,998.41
2017,10,19,00,41,998.41
2017,10,19,00,42,998.41
2017,10,19,00,43,998.41
2017,10,19,00,44,998.41
2017,10,19,00,45,998.41
2017,10,19,00,46,998.41
2017,10,19,00,47,998.41
2017,10,19,00,48,998.41
2017,10,19,00,49,998.41
2017,10,19,00,50,998.41
2017,10,19,00,51,998.41
2017,10,19,00,52,998.41
2017,10,19,00,53,998.41
2017,10,19,00,54,998.41
2017,10,19,00,55,998.41
2017,10,19,00,56,998.41
2017,10,19,00,57,998.41
2017,10,19,00,58,998.41
2017,10,19,00,59,998.41
2017,10,19,01,00,998.31
2017,10,19,01,01,998.31
2017,10,19,01,02,998.31
2017,10,19,01,03,998.31
2017,10,19,01,04,998.31
2017,10,19,01,05,998.31
2017,10,19,01,06,998.31
2017,10,19,01,07,998.31
2017,10,19,01,08,998.31
2017,10,19,01,09,998.31
2017,10,19,01,10,998.31
2017,10,19,01,11,998.31
2017,10,19,01,12,998.31
2017,10,19,01,13,998.31
2017,10,19,01,14,998.31
2017,10,19,01,15,998.24
2017,10,19,01,16,998.24
2017,10,19,01,17,998.24
2017,10,19,01,18,998.24
2017,10,19,01,19,998.24
2017,10,19,01,20,998.24
2017,10,19,01,21,998.24
2017,10,19,01,22,998.24
2017,10,19,01,23,998.24
2017,10,19,01,24,998.24
2017,10,19,01,25,998.24
2017,10,19,01,26,998.24
2017,10,19,01,27,998.24
2017,10,19,01,28,998.24
2017,10,19,01,29,998.24
2017,10,19,01,30,998.27
2017,10,19,01,31,998.27
2017,10,19,01,32,998.27
2017,10,19,01,33,998.27
2017,10,19,01,34,998.27
2017,10,19,01,35,998.27
2017,10,19,01,36,998.27
2017,10,19,01,37,998.27
2017,10,19,01,38,998.27
2017,10,19,01,39,998.27
2017,10,19,01,40,998.27
2017,10,19,01,41,998.27
2017,10,19,01,42,998.27
2017,10,19,01,43,998.27
2017,10,19,01,44,998.27
2017,10,19,01,45,998.38
2017,10,19,01,46,998.38
2017,10,19,01,47,998.38
2017,10,19,01,48,998.38
2017,10,19,01,49,998.38
2017,10,19,01,50,998.38
2017,10,19,01,51,998.38
2017,10,19,01,52,998.38
2017,10,19,01,53,998.38
2017,10,19,01,54,998.38
2017,10,19,01,55,998.38
2017,10,19,01,56,998.38
2017,10,19,01,57,998.38
2017,10,19,01,58,998.38
2017,10,19,01,59,998.38
2017,10,19,02,00,998.61
2017,10,19,02,01,998.61
2017,10,19,02,02,998.61
2017,10,19,02,03,998.61
2017,10,19,02,04,998.61
2017,10,19,02,05,998.61
2017,10,19,02,06,998.61
2017,10,19,02,07,998.61
2017,10,19,02,08,998.61
2017,10,19,02,09,998.61
2017,10,19,02,10,998.61
2017,10,19,02,11,998.61
2017,10,19,02,12,998.61
2017,10,19,02,13,998.61
2017,10,19,02,14,998.61
2017,10,19,02,15,998.48
2017,10,19,02,16,998.48
2017,10,19,02,17,998.48
2017,10,19,02,18,998.48
2017,10,19,02,19,998.48
2017,10,19,02,20,998.48
2017,10,19,02,21,998.48
2017,10,19,02,22,998.48
2017,10,19,02,23,998.48
2017,10,19,02,24,998.48
2017,10,19,02,25,998.48
2017,10,19,02,26,998.48
2017,10,19,02,27,998.48
2017,10,19,02,28,998.48
2017,10,19,02,29,998.48
2017,10,19,02,30,998.41
2017,10,19,02,31,998.41
2017,10,19,02,32,998.41
2017,10,19,02,33,998.41
2017,10,19,02,34,998.41
2017,10,19,02,35,998.41
2017,10,19,02,36,998.41
2017,10,19,02,37,998.41
2017,10,19,02,38,998.41
2017,10,19,02,39,998.41
2017,10,19,02,40,998.41
2017,10,19,02,41,998.41
2017,10,19,02,42,998.41
2017,10,19,02,43,998.41
2017,10,19,02,44,998.41
2017,10,19,02,45,998.71
2017,10,19,02,46,998.71
2017,10,19,02,47,998.71
2017,10,19,02,48,998.71
2017,10,19,02,49,998.71
2017,10,19,02,50,998.71
2017,10,19,02,51,998.71
2017,10,19,02,52,998.71
2017,10,19,02,53,998.71
2017,10,19,02,54,998.71
2017,10,19,02,55,998.71
2017,10,19,02,56,998.71
2017,10,19,02,57,998.71
2017,10,19,02,58,998.71
2017,10,19,02,59,998.71
2017,10,19,03,00,998.42
2017,10,19,03,01,998.41
2017,10,19,03,02,998.41
2017,10,19,03,03,998.41
2017,10,19,03,04,998.41
2017,10,19,03,05,998.41
2017,10,19,03,06,998.41
2017,10,19,03,07,998.41
2017,10,19,03,08,998.41
2017,10,19,03,09,998.41
2017,10,19,03,10,998.41
2017,10,19,03,11,998.41
2017,10,19,03,12,998.41
2017,10,19,03,13,998.41
2017,10,19,03,14,998.41
2017,10,19,03,15,998.65
2017,10,19,03,16,998.65
2017,10,19,03,17,998.65
2017,10,19,03,18,998.65
2017,10,19,03,19,998.65
2017,10,19,03,20,998.65
2017,10,19,03,21,998.65
2017,10,19,03,22,998.65
2017,10,19,03,23,998.65
2017,10,19,03,24,998.65
2017,10,19,03,25,998.65
2017,10,19,03,26,998.65
2017,10,19,03,27,998.65
2017,10,19,03,28,998.65
2017,10,19,03,29,998.65
2017,10,19,03,30,998.31
2017,10,19,03,31,998.31
2017,10,19,03,32,998.31
2017,10,19,03,33,998.31
2017,10,19,03,34,998.31
2017,10,19,03,35,998.31
2017,10,19,03,36,998.31
2017,10,19,03,37,998.31
2017,10,19,03,38,998.31
2017,10,19,03,39,998.31
2017,10,19,03,40,998.31
2017,10,19,03,41,998.31
2017,10,19,03,42,998.31
2017,10,19,03,43,998.31
2017,10,19,03,44,998.31
2017,10,19,03,45,998.24
2017,10,19,03,46,998.24
2017,10,19,03,47,998.24
2017,10,19,03,48,998.24
2017,10,19,03,49,998.24
2017,10,19,03,50,998.24
2017,10,19,03,51,998.24
2017,10,19,03,52,998.24
2017,10,19,03,53,998.24
2017,10,19,03,54,998.24
2017,10,19,03,55,998.24
2017,10,19,03,56,998.24
2017,10,19,03,57,998.24
2017,10,19,03,58,998.24
2017,10,19,03,59,998.24
2017,10,19,04,00,998.24
2017,10,19,04,01,998.24
2017,10,19,04,02,998.24
2017,10,19,04,03,998.24
2017,10,19,04,04,998.24
2017,10,19,04,05,998.24
2017,10,19,04,06,998.24
2017,10,19,04,07,998.24
2017,10,19,04,08,998.24
2017,10,19,04,09,998.24
2017,10,19,04,10,998.24
2017,10,19,04,11,998.24
2017,10,19,04,12,998.24
2017,10,19,04,13,998.24
2017,10,19,04,14,998.24
2017,10,19,04,15,998.05
2017,10,19,04,16,998.04
2017,10,19,04,17,998.04
2017,10,19,04,18,998.04
2017,10,19,04,19,998.04
2017,10,19,04,20,998.04
2017,10,19,04,21,998.04
2017,10,19,04,22,998.04
2017,10,19,04,23,998.04
2017,10,19,04,24,998.04
2017,10,19,04,25,998.04
2017,10,19,04,26,998.04
2017,10,19,04,27,998.04
2017,10,19,04,28,998.04
2017,10,19,04,29,998.04
2017,10,19,04,30,997.94
2017,10,19,04,31,997.94
2017,10,19,04,32,997.94
2017,10,19,04,33,997.94
2017,10,19,04,34,997.94
2017,10,19,04,35,997.94
2017,10,19,04,36,997.94
2017,10,19,04,37,997.94
2017,10,19,04,38,997.94
2017,10,19,04,39,997.94
2017,10,19,04,40,997.94
2017,10,19,04,41,997.94
2017,10,19,04,42,997.94
2017,10,19,04,43,997.94
2017,10,19,04,44,997.94
2017,10,19,04,45,998.14
2017,10,19,04,46,998.14
2017,10,19,04,47,998.14
2017,10,19,04,48,998.14
2017,10,19,04,49,998.14
2017,10,19,04,50,998.14
2017,10,19,04,51,998.14
2017,10,19,04,52,998.14
2017,10,19,04,53,998.14
2017,10,19,04,54,998.14
2017,10,19,04,55,998.14
2017,10,19,04,56,998.14
2017,10,19,04,57,998.14
2017,10,19,04,58,998.14
2017,10,19,04,59,998.14
2017,10,19,05,00,998.23
2017,10,19,05,01,998.24
2017,10,19,05,02,998.24
2017,10,19,05,03,998.24
2017,10,19,05,04,998.24
2017,10,19,05,05,998.24
2017,10,19,05,06,998.24
2017,10,19,05,07,998.24
2017,10,19,05,08,998.24
2017,10,19,05,09,998.24
2017,10,19,05,10,998.24
2017,10,19,05,11,998.24
2017,10,19,05,12,998.24
2017,10,19,05,13,998.24
2017,10,19,05,14,998.24
2017,10,19,05,15,998.24
2017,10,19,05,16,998.24
2017,10,19,05,17,998.24
2017,10,19,05,18,998.24
2017,10,19,05,19,998.24
2017,10,19,05,20,998.24
2017,10,19,05,21,998.24
2017,10,19,05,22,998.24
2017,10,19,05,23,998.24
2017,10,19,05,24,998.24
2017,10,19,05,25,998.24
2017,10,19,05,26,998.24
2017,10,19,05,27,998.24
2017,10,19,05,28,998.24
2017,10,19,05,29,998.24
2017,10,19,05,30,998.04
2017,10,19,05,31,998.04
2017,10,19,05,32,998.04
2017,10,19,05,33,998.04
2017,10,19,05,34,998.04
2017,10,19,05,35,998.04
2017,10,19,05,36,998.04
2017,10,19,05,37,998.04
2017,10,19,05,38,998.04
2017,10,19,05,39,998.04
2017,10,19,05,40,998.04
2017,10,19,05,41,998.04
2017,10,19,05,42,998.04
2017,10,19,05,43,998.04
2017,10,19,05,44,998.04
2017,10,19,05,45,997.90
2017,10,19,05,46,997.90
2017,10,19,05,47,997.90
2017,10,19,05,48,997.90
2017,10,19,05,49,997.90
2017,10,19,05,50,997.90
2017,10,19,05,51,997.90
2017,10,19,05,52,997.90
2017,10,19,05,53,997.90
2017,10,19,05,54,997.90
2017,10,19,05,55,997.90
2017,10,19,05,56,997.90
2017,10,19,05,57,997.90
2017,10,19,05,58,997.90
2017,10,19,05,59,997.90
2017,10,19,06,00,997.80
2017,10,19,06,01,997.80
2017,10,19,06,02,997.80
2017,10,19,06,03,997.80
2017,10,19,06,04,997.80
2017,10,19,06,05,997.80
2017,10,19,06,06,997.80
2017,10,19,06,07,997.80
2017,10,19,06,08,997.80
2017,10,19,06,09,997.80
2017,10,19,06,10,997.80
2017,10,19,06,11,997.80
2017,10,19,06,12,997.80
2017,10,19,06,13,997.80
2017,10,19,06,14,997.80
2017,10,19,06,15,997.77
2017,10,19,06,16,997.77
2017,10,19,06,17,997.77
2017,10,19,06,18,997.77
2017,10,19,06,19,997.77
2017,10,19,06,20,997.77
2017,10,19,06,21,997.77
2017,10,19,06,22,997.77
2017,10,19,06,23,997.77
2017,10,19,06,24,997.77
2017,10,19,06,25,997.77
2017,10,19,06,26,997.77
2017,10,19,06,27,997.77
2017,10,19,06,28,997.77
2017,10,19,06,29,997.77
2017,10,19,06,30,997.73
2017,10,19,06,31,997.73
2017,10,19,06,32,997.73
2017,10,19,06,33,997.73
2017,10,19,06,34,997.73
2017,10,19,06,35,997.73
2017,10,19,06,36,997.73
2017,10,19,06,37,997.73
2017,10,19,06,38,997.73
2017,10,19,06,39,997.73
2017,10,19,06,40,997.73
2017,10,19,06,41,997.73
2017,10,19,06,42,997.73
2017,10,19,06,43,997.73
2017,10,19,06,44,997.73
2017,10,19,06,45,997.86
2017,10,19,06,46,997.87
2017,10,19,06,47,997.87
2017,10,19,06,48,997.87
2017,10,19,06,49,997.87
2017,10,19,06,50,997.87
2017,10,19,06,51,997.87
2017,10,19,06,52,997.87
2017,10,19,06,53,997.87
2017,10,19,06,54,997.87
2017,10,19,06,55,997.87
2017,10,19,06,56,997.87
2017,10,19,06,57,997.87
2017,10,19,06,58,997.87
2017,10,19,06,59,997.87
2017,10,19,07,00,997.74
2017,10,19,07,01,997.73
2017,10,19,07,02,997.73
2017,10,19,07,03,997.73
2017,10,19,07,04,997.73
2017,10,19,07,05,997.73
2017,10,19,07,06,997.73
2017,10,19,07,07,997.73
2017,10,19,07,08,997.73
2017,10,19,07,09,997.73
2017,10,19,07,10,997.73
2017,10,19,07,11,997.73
2017,10,19,07,12,997.73
2017,10,19,07,13,997.73
2017,10,19,07,14,997.73
2017,10,19,07,15,997.26
2017,10,19,07,16,997.26
2017,10,19,07,17,997.26
2017,10,19,07,18,997.26
2017,10,19,07,19,997.26
2017,10,19,07,20,997.26
2017,10,19,07,21,997.26
2017,10,19,07,22,997.26
2017,10,19,07,23,997.26
2017,10,19,07,24,997.26
2017,10,19,07,25,997.26
2017,10,19,07,26,997.26
2017,10,19,07,27,997.26
2017,10,19,07,28,997.26
2017,10,19,07,29,997.26
2017,10,19,07,30,996.92
2017,10,19,07,31,996.92
2017,10,19,07,32,996.92
2017,10,19,07,33,996.92
2017,10,19,07,34,996.92
2017,10,19,07,35,996.92
2017,10,19,07,36,996.92
2017,10,19,07,37,996.92
2017,10,19,07,38,996.92
2017,10,19,07,39,996.92
2017,10,19,07,40,996.92
2017,10,19,07,41,996.92
2017,10,19,07,42,996.92
2017,10,19,07,43,996.92
2017,10,19,07,44,996.92
2017,10,19,07,45,996.82
2017,10,19,07,46,996.82
2017,10,19,07,47,996.82
2017,10,19,07,48,996.82
2017,10,19,07,49,996.82
2017,10,19,07,50,996.82
2017,10,19,07,51,996.82
2017,10,19,07,52,996.82
2017,10,19,07,53,996.82
2017,10,19,07,54,996.82
2017,10,19,07,55,996.82
2017,10,19,07,56,996.82
2017,10,19,07,57,996.82
2017,10,19,07,58,996.82
2017,10,19,07,59,996.82
2017,10,19,08,00,997.11
2017,10,19,08,01,997.12
2017,10,19,08,02,997.12
2017,10,19,08,03,997.12
2017,10,19,08,04,997.12
2017,10,19,08,05,997.12
2017,10,19,08,06,997.12
2017,10,19,08,07,997.12
2017,10,19,08,08,997.12
2017,10,19,08,09,997.12
2017,10,19,08,10,997.12
2017,10,19,08,11,997.12
2017,10,19,08,12,997.12
2017,10,19,08,13,997.12
2017,10,19,08,14,997.12
2017,10,19,08,15,996.77
2017,10,19,08,16,996.75
2017,10,19,08,17,996.75
2017,10,19,08,18,996.75
2017,10,19,08,19,996.75
2017,10,19,08,20,996.75
2017,10,19,08,21,996.75
2017,10,19,08,22,996.75
2017,10,19,08,23,996.75
2017,10,19,08,24,996.75
2017,10,19,08,25,996.75
2017,10,19,08,26,996.75
2017,10,19,08,27,996.75
2017,10,19,08,28,996.75
2017,10,19,08,29,996.75
2017,10,19,08,30,996.91
2017,10,19,08,31,996.92
2017,10,19,08,32,996.92
2017,10,19,08,33,996.92
2017,10,19,08,34,996.92
2017,10,19,08,35,996.92
2017,10,19,08,36,996.92
2017,10,19,08,37,996.92
2017,10,19,08,38,996.92
2017,10,19,08,39,996.92
2017,10,19,08,40,996.92
2017,10,19,08,41,996.92
2017,10,19,08,42,996.92
2017,10,19,08,43,996.92
2017,10,19,08,44,996.92
2017,10,19,08,45,996.79
2017,10,19,08,46,996.78
2017,10,19,08,47,996.78
2017,10,19,08,48,996.78
2017,10,19,08,49,996.78
2017,10,19,08,50,996.78
2017,10,19,08,51,996.78
2017,10,19,08,52,996.78
2017,10,19,08,53,996.78
2017,10,19,08,54,996.78
2017,10,19,08,55,996.78
2017,10,19,08,56,996.78
2017,10,19,08,57,996.78
2017,10,19,08,58,996.78
2017,10,19,08,59,996.78
2017,10,19,09,00,996.94
2017,10,19,09,01,996.95
2017,10,19,09,02,996.95
2017,10,19,09,03,996.95
2017,10,19,09,04,996.95
2017,10,19,09,05,996.95
2017,10,19,09,06,996.95
2017,10,19,09,07,996.95
2017,10,19,09,08,996.95
2017,10,19,09,09,996.95
2017,10,19,09,10,996.95
2017,10,19,09,11,996.95
2017,10,19,09,12,996.95
2017,10,19,09,13,996.95
2017,10,19,09,14,996.95
2017,10,19,09,15,997.09
2017,10,19,09,16,997.09
2017,10,19,09,17,997.09
2017,10,19,09,18,997.09
2017,10,19,09,19,997.09
2017,10,19,09,20,997.09
2017,10,19,09,21,997.09
2017,10,19,09,22,997.09
2017,10,19,09,23,997.09
2017,10,19,09,24,997.09
2017,10,19,09,25,997.09
2017,10,19,09,26,997.09
2017,10,19,09,27,997.09
2017,10,19,09,28,997.09
2017,10,19,09,29,997.09
2017,10,19,09,30,997.12
2017,10,19,09,31,997.12
2017,10,19,09,32,997.12
2017,10,19,09,33,997.12
2017,10,19,09,34,997.12
2017,10,19,09,35,997.12
2017,10,19,09,36,997.12
2017,10,19,09,37,997.12
2017,10,19,09,38,997.12
2017,10,19,09,39,997.12
2017,10,19,09,40,997.12
2017,10,19,09,41,997.12
2017,10,19,09,42,997.12
2017,10,19,09,43,997.12
2017,10,19,09,44,997.12
2017,10,19,09,45,997.09
2017,10,19,09,46,997.09
2017,10,19,09,47,997.09
2017,10,19,09,48,997.09
2017,10,19,09,49,997.09
2017,10,19,09,50,997.09
2017,10,19,09,51,997.09
2017,10,19,09,52,997.09
2017,10,19,09,53,997.09
2017,10,19,09,54,997.09
2017,10,19,09,55,997.09
2017,10,19,09,56,997.09
2017,10,19,09,57,997.09
2017,10,19,09,58,997.09
2017,10,19,09,59,997.09
2017,10,19,10,00,996.96
2017,10,19,10,01,996.95
2017,10,19,10,02,996.95
2017,10,19,10,03,996.95
2017,10,19,10,04,996.95
2017,10,19,10,05,996.95
2017,10,19,10,06,996.95
2017,10,19,10,07,996.95
2017,10,19,10,08,996.95
2017,10,19,10,09,996.95
2017,10,19,10,10,996.95
2017,10,19,10,11,996.95
2017,10,19,10,12,996.95
2017,10,19,10,13,996.95
2017,10,19,10,14,996.95
2017,10,19,10,15,996.73
2017,10,19,10,16,996.72
2017,10,19,10,17,996.72
2017,10,19,10,18,996.72
2017,10,19,10,19,996.72
2017,10,19,10,20,996.72
2017,10,19,10,21,996.72
2017,10,19,10,22,996.72
2017,10,19,10,23,996.72
2017,10,19,10,24,996.72
2017,10,19,10,25,996.72
2017,10,19,10,26,996.72
2017,10,19,10,27,996.72
2017,10,19,10,28,996.72
2017,10,19,10,29,996.72
2017,10,19,10,30,996.84
2017,10,19,10,31,996.85
2017,10,19,10,32,996.85
2017,10,19,10,33,996.85
2017,10,19,10,34,996.85
2017,10,19,10,35,996.85
2017,10,19,10,36,996.85
2017,10,19,10,37,996.85
2017,10,19,10,38,996.85
2017,10,19,10,39,996.85
2017,10,19,10,40,996.85
2017,10,19,10,41,996.85
2017,10,19,10,42,996.85
2017,10,19,10,43,996.85
2017,10,19,10,44,996.85
2017,10,19,10,45,997.15
2017,10,19,10,46,997.16
2017,10,19,10,47,997.16
2017,10,19,10,48,997.16
2017,10,19,10,49,997.16
2017,10,19,10,50,997.16
2017,10,19,10,51,997.16
2017,10,19,10,52,997.16
2017,10,19,10,53,997.16
2017,10,19,10,54,997.16
2017,10,19,10,55,997.16
2017,10,19,10,56,997.16
2017,10,19,10,57,997.16
2017,10,19,10,58,997.16
2017,10,19,10,59,997.16
2017,10,19,11,00,997.19
2017,10,19,11,01,997.19
2017,10,19,11,02,997.19
2017,10,19,11,03,997.19
2017,10,19,11,04,997.19
2017,10,19,11,05,997.19
2017,10,19,11,06,997.19
2017,10,19,11,07,997.19
2017,10,19,11,08,997.19
2017,10,19,11,09,997.19
2017,10,19,11,10,997.19
2017,10,19,11,11,997.19
2017,10,19,11,12,997.19
2017,10,19,11,13,997.19
2017,10,19,11,14,997.19
2017,10,19,11,15,997.26
2017,10,19,11,16,997.26
2017,10,19,11,17,997.26
2017,10,19,11,18,997.26
2017,10,19,11,19,997.26
2017,10,19,11,20,997.26
2017,10,19,11,21,997.26
2017,10,19,11,22,997.26
2017,10,19,11,23,997.26
2017,10,19,11,24,997.26
2017,10,19,11,25,997.26
2017,10,19,11,26,997.26
2017,10,19,11,27,997.26
2017,10,19,11,28,997.26
2017,10,19,11,29,997.26
2017,10,19,11,30,997.26
2017,10,19,11,31,997.26
2017,10,19,11,32,997.26
2017,10,19,11,33,997.26
2017,10,19,11,34,997.26
2017,10,19,11,35,997.26
2017,10,19,11,36,997.26
2017,10,19,11,37,997.26
2017,10,19,11,38,997.26
2017,10,19,11,39,997.26
2017,10,19,11,40,997.26
2017,10,19,11,41,997.26
2017,10,19,11,42,997.26
2017,10,19,11,43,997.26
2017,10,19,11,44,997.26
2017,10,19,11,45,997.29
2017,10,19,11,46,997.29
2017,10,19,11,47,997.29
2017,10,19,11,48,997.29
2017,10,19,11,49,997.29
2017,10,19,11,50,997.29
2017,10,19,11,51,997.29
2017,10,19,11,52,997.29
2017,10,19,11,53,997.29
2017,10,19,11,54,997.29
2017,10,19,11,55,997.29
2017,10,19,11,56,997.29
2017,10,19,11,57,997.29
2017,10,19,11,58,997.29
2017,10,19,11,59,997.29
2017,10,19,12,00,997.26
2017,10,19,12,01,997.26
2017,10,19,12,02,997.26
2017,10,19,12,03,997.26
2017,10,19,12,04,997.26
2017,10,19,12,05,997.26
2017,10,19,12,06,997.26
2017,10,19,12,07,997.26
2017,10,19,12,08,997.26
2017,10,19,12,09,997.26
2017,10,19,12,10,997.26
2017,10,19,12,11,997.26
2017,10,19,12,12,997.26
2017,10,19,12,13,997.26
2017,10,19,12,14,997.26
2017,10,19,12,15,997.45
2017,10,19,12,16,997.46
2017,10,19,12,17,997.46
2017,10,19,12,18,997.46
2017,10,19,12,19,997.46
2017,10,19,12,20,997.46
2017,10,19,12,21,997.46
2017,10,19,12,22,997.46
2017,10,19,12,23,997.46
2017,10,19,12,24,997.46
2017,10,19,12,25,997.46
2017,10,19,12,26,997.46
2017,10,19,12,27,997.46
2017,10,19,12,28,997.46
2017,10,19,12,29,997.46
2017,10,19,12,30,997.39
2017,10,19,12,31,997.39
2017,10,19,12,32,997.39
2017,10,19,12,33,997.39
2017,10,19,12,34,997.39
2017,10,19,12,35,997.39
2017,10,19,12,36,997.39
2017,10,19,12,37,997.39
2017,10,19,12,38,997.39
2017,10,19,12,39,997.39
2017,10,19,12,40,997.39
2017,10,19,12,41,997.39
2017,10,19,12,42,997.39
2017,10,19,12,43,997.39
2017,10,19,12,44,997.39
2017,10,19,12,45,997.19
2017,10,19,12,46,997.19
2017,10,19,12,47,997.19
2017,10,19,12,48,997.19
2017,10,19,12,49,997.19
2017,10,19,12,50,997.19
2017,10,19,12,51,997.19
2017,10,19,12,52,997.19
2017,10,19,12,53,997.19
2017,10,19,12,54,997.19
2017,10,19,12,55,997.19
2017,10,19,12,56,997.19
2017,10,19,12,57,997.19
2017,10,19,12,58,997.19
2017,10,19,12,59,997.19
2017,10,19,13,00,996.99
2017,10,19,13,01,996.99
2017,10,19,13,02,996.99
2017,10,19,13,03,996.99
2017,10,19,13,04,996.99
2017,10,19,13,05,996.99
2017,10,19,13,06,996.99
2017,10,19,13,07,996.99
2017,10,19,13,08,996.99
2017,10,19,13,09,996.99
2017,10,19,13,10,996.99
2017,10,19,13,11,996.99
2017,10,19,13,12,996.99
2017,10,19,13,13,996.99
2017,10,19,13,14,996.99
2017,10,19,13,15,996.78
2017,10,19,13,16,996.78
2017,10,19,13,17,996.78
2017,10,19,13,18,996.78
2017,10,19,13,19,996.78
2017,10,19,13,20,996.78
2017,10,19,13,21,996.78
2017,10,19,13,22,996.78
2017,10,19,13,23,996.78
2017,10,19,13,24,996.78
2017,10,19,13,25,996.78
2017,10,19,13,26,996.78
2017,10,19,13,27,996.78
2017,10,19,13,28,996.78
2017,10,19,13,29,996.78
2017,10,19,13,30,996.75
2017,10,19,13,31,996.75
2017,10,19,13,32,996.75
2017,10,19,13,33,996.75
2017,10,19,13,34,996.75
2017,10,19,13,35,996.75
2017,10,19,13,36,996.75
2017,10,19,13,37,996.75
2017,10,19,13,38,996.75
2017,10,19,13,39,996.75
2017,10,19,13,40,996.75
2017,10,19,13,41,996.75
2017,10,19,13,42,996.75
2017,10,19,13,43,996.75
2017,10,19,13,44,996.75
2017,10,19,13,45,996.75
2017,10,19,13,46,996.75
2017,10,19,13,47,996.75
2017,10,19,13,48,996.75
2017,10,19,13,49,996.75
2017,10,19,13,50,996.75
2017,10,19,13,51,996.75
2017,10,19,13,52,996.75
2017,10,19,13,53,996.75
2017,10,19,13,54,996.75
2017,10,19,13,55,996.75
2017,10,19,13,56,996.75
2017,10,19,13,57,996.75
2017,10,19,13,58,996.75
2017,10,19,13,59,996.75
2017,10,19,14,00,996.66
2017,10,19,14,01,996.65
2017,10,19,14,02,996.65
2017,10,19,14,03,996.65
2017,10,19,14,04,996.65
2017,10,19,14,05,996.65
2017,10,19,14,06,996.65
2017,10,19,14,07,996.65
2017,10,19,14,08,996.65
2017,10,19,14,09,996.65
2017,10,19,14,10,996.65
2017,10,19,14,11,996.65
2017,10,19,14,12,996.65
2017,10,19,14,13,996.65
2017,10,19,14,14,996.65
2017,10,19,14,15,996.49
2017,10,19,14,16,996.48
2017,10,19,14,17,996.48
2017,10,19,14,18,996.48
2017,10,19,14,19,996.48
2017,10,19,14,20,996.48
2017,10,19,14,21,996.48
2017,10,19,14,22,996.48
2017,10,19,14,23,996.48
2017,10,19,14,24,996.48
2017,10,19,14,25,996.48
2017,10,19,14,26,996.48
2017,10,19,14,27,996.48
2017,10,19,14,28,996.48
2017,10,19,14,29,996.48
2017,10,19,14,30,996.35
2017,10,19,14,31,996.34
2017,10,19,14,32,996.34
2017,10,19,14,33,996.34
2017,10,19,14,34,996.34
2017,10,19,14,35,996.34
2017,10,19,14,36,996.34
2017,10,19,14,37,996.34
2017,10,19,14,38,996.34
2017,10,19,14,39,996.34
2017,10,19,14,40,996.34
2017,10,19,14,41,996.34
2017,10,19,14,42,996.34
2017,10,19,14,43,996.34
2017,10,19,14,44,996.34
2017,10,19,14,45,996.11
2017,10,19,14,46,996.11
2017,10,19,14,47,996.11
2017,10,19,14,48,996.11
2017,10,19,14,49,996.11
2017,10,19,14,50,996.11
2017,10,19,14,51,996.11
2017,10,19,14,52,996.11
2017,10,19,14,53,996.11
2017,10,19,14,54,996.11
2017,10,19,14,55,996.11
2017,10,19,14,56,996.11
2017,10,19,14,57,996.11
2017,10,19,14,58,996.11
2017,10,19,14,59,996.11
2017,10,19,15,00,995.69
2017,10,19,15,01,995.67
2017,10,19,15,02,995.67
2017,10,19,15,03,995.67
2017,10,19,15,04,995.67
2017,10,19,15,05,995.67
2017,10,19,15,06,995.67
2017,10,19,15,07,995.67
2017,10,19,15,08,995.67
2017,10,19,15,09,995.67
2017,10,19,15,10,995.67
2017,10,19,15,11,995.67
2017,10,19,15,12,995.67
2017,10,19,15,13,995.67
2017,10,19,15,14,995.67
2017,10,19,15,15,995.21
2017,10,19,15,16,995.19
2017,10,19,15,17,995.19
2017,10,19,15,18,995.19
2017,10,19,15,19,995.19
2017,10,19,15,20,995.19
2017,10,19,15,21,995.19
2017,10,19,15,22,995.19
2017,10,19,15,23,995.19
2017,10,19,15,24,995.19
2017,10,19,15,25,995.19
2017,10,19,15,26,995.19
2017,10,19,15,27,995.19
2017,10,19,15,28,995.19
2017,10,19,15,29,995.19
2017,10,19,15,30,995.45
2017,10,19,15,31,995.46
2017,10,19,15,32,995.46
2017,10,19,15,33,995.46
2017,10,19,15,34,995.46
2017,10,19,15,35,995.46
2017,10,19,15,36,995.46
2017,10,19,15,37,995.46
2017,10,19,15,38,995.46
2017,10,19,15,39,995.46
2017,10,19,15,40,995.46
2017,10,19,15,41,995.46
2017,10,19,15,42,995.46
2017,10,19,15,43,995.46
2017,10,19,15,44,995.46
2017,10,19,15,45,995.62
2017,10,19,15,46,995.63
2017,10,19,15,47,995.63
2017,10,19,15,48,995.63
2017,10,19,15,49,995.63
2017,10,19,15,50,995.63
2017,10,19,15,51,995.63
2017,10,19,15,52,995.63
2017,10,19,15,53,995.63
2017,10,19,15,54,995.63
2017,10,19,15,55,995.63
2017,10,19,15,56,995.63
2017,10,19,15,57,995.63
2017,10,19,15,58,995.63
2017,10,19,15,59,995.63
2017,10,19,16,00,995.67
2017,10,19,16,01,995.67
2017,10,19,16,02,995.67
2017,10,19,16,03,995.67
2017,10,19,16,04,995.67
2017,10,19,16,05,995.67
2017,10,19,16,06,995.67
2017,10,19,16,07,995.67
2017,10,19,16,08,995.67
2017,10,19,16,09,995.67
2017,10,19,16,10,995.67
2017,10,19,16,11,995.67
2017,10,19,16,12,995.67
2017,10,19,16,13,995.67
2017,10,19,16,14,995.67
2017,10,19,16,15,995.28
2017,10,19,16,16,995.26
2017,10,19,16,17,995.26
2017,10,19,16,18,995.26
2017,10,19,16,19,995.26
2017,10,19,16,20,995.26
2017,10,19,16,21,995.26
2017,10,19,16,22,995.26
2017,10,19,16,23,995.26
2017,10,19,16,24,995.26
2017,10,19,16,25,995.26
2017,10,19,16,26,995.26
2017,10,19,16,27,995.26
2017,10,19,16,28,995.26
2017,10,19,16,29,995.26
2017,10,19,16,30,995.23
2017,10,19,16,31,995.23
2017,10,19,16,32,995.23
2017,10,19,16,33,995.23
2017,10,19,16,34,995.23
2017,10,19,16,35,995.23
2017,10,19,16,36,995.23